TimeEDT,TemperatureF,Dew PointF,Humidity,Sea Level PressureIn,VisibilityMPH,Wind Direction,Wind SpeedMPH,Gust SpeedMPH,PrecipitationIn,Events,Conditions,WindDirDegrees,DateUTC
12:15 AM,48.7,37.6,65,29.97,10.0,Calm,Calm,-,N/A,,Overcast,0,2013-10-27 04:15:00
12:35 AM,47.7,38.3,70,29.98,10.0,Calm,Calm,-,N/A,,Overcast,0,2013-10-27 04:35:00
12:55 AM,48.2,37.8,67,29.98,10.0,SW,3.5,-,N/A,,Overcast,220,2013-10-27 04:55:00
1:15 AM,47.7,37.6,68,29.98,10.0,South,3.5,-,N/A,,Scattered Clouds,190,2013-10-27 05:15:00
1:35 AM,45.7,37.9,74,29.98,10.0,Calm,Calm,-,N/A,,Clear,0,2013-10-27 05:35:00
1:55 AM,43.9,38.3,81,29.99,10.0,Calm,Calm,-,N/A,,Clear,0,2013-10-27 05:55:00
2:15 AM,38.8,36.7,92,29.99,10.0,Calm,Calm,-,N/A,,Clear,0,2013-10-27 06:15:00
2:35 AM,38.5,35.8,90,29.98,10.0,Calm,Calm,-,N/A,,Clear,0,2013-10-27 06:35:00
2:55 AM,35.1,34.3,97,29.98,10.0,Calm,Calm,-,N/A,,Scattered Clouds,0,2013-10-27 06:55:00
3:15 AM,36.0,35.6,99,29.99,10.0,Calm,Calm,-,N/A,,Clear,0,2013-10-27 07:15:00
3:35 AM,37.6,37.2,99,29.99,10.0,Calm,Calm,-,N/A,,Clear,0,2013-10-27 07:35:00
3:55 AM,35.6,35.6,100,29.98,10.0,Calm,Calm,-,N/A,,Scattered Clouds,0,2013-10-27 07:55:00
4:15 AM,37.4,37.4,100,29.98,10.0,Calm,Calm,-,N/A,,Overcast,0,2013-10-27 08:15:00
4:35 AM,41.0,39.7,95,29.99,10.0,Calm,Calm,-,N/A,,Overcast,0,2013-10-27 08:35:00
4:55 AM,41.0,40.1,97,29.99,10.0,Calm,Calm,-,N/A,,Overcast,0,2013-10-27 08:55:00
5:15 AM,41.9,40.1,93,29.99,10.0,Calm,Calm,-,N/A,,Overcast,0,2013-10-27 09:15:00
5:35 AM,41.5,40.5,96,30.00,10.0,Calm,Calm,-,N/A,,Overcast,0,2013-10-27 09:35:00
5:55 AM,39.4,39.0,99,30.00,10.0,Calm,Calm,-,N/A,,Mostly Cloudy,0,2013-10-27 09:55:00
6:15 AM,40.5,39.2,95,30.01,10.0,Calm,Calm,-,N/A,,Mostly Cloudy,0,2013-10-27 10:15:00
6:35 AM,38.7,38.7,100,30.02,10.0,Calm,Calm,-,N/A,,Mostly Cloudy,0,2013-10-27 10:35:00
6:55 AM,37.6,37.6,100,30.02,10.0,Calm,Calm,-,N/A,,Mostly Cloudy,0,2013-10-27 10:55:00
7:15 AM,36.0,36.0,100,30.03,10.0,Calm,Calm,-,N/A,,Scattered Clouds,0,2013-10-27 11:15:00
7:35 AM,34.7,34.7,100,30.03,10.0,Calm,Calm,-,N/A,,Scattered Clouds,0,2013-10-27 11:35:00
7:55 AM,36.3,36.3,100,30.04,10.0,Calm,Calm,-,N/A,,Scattered Clouds,0,2013-10-27 11:55:00
8:15 AM,36.9,36.9,100,30.05,10.0,Calm,Calm,-,N/A,,Clear,0,2013-10-27 12:15:00
8:35 AM,39.6,39.6,100,30.05,10.0,Calm,Calm,-,N/A,,Clear,0,2013-10-27 12:35:00
8:55 AM,40.6,40.6,100,30.07,10.0,Calm,Calm,-,N/A,,Clear,0,2013-10-27 12:55:00
9:15 AM,42.8,41.4,95,30.08,10.0,Calm,Calm,-,N/A,,Clear,0,2013-10-27 13:15:00
9:35 AM,44.1,41.5,91,30.08,10.0,Calm,Calm,-,N/A,,Clear,0,2013-10-27 13:35:00
9:55 AM,45.7,42.3,88,30.07,10.0,Calm,Calm,-,N/A,,Clear,0,2013-10-27 13:55:00
10:15 AM,46.4,42.8,87,30.08,10.0,Calm,Calm,-,N/A,,Clear,0,2013-10-27 14:15:00
10:35 AM,47.7,42.3,82,30.08,10.0,Calm,Calm,-,N/A,,Clear,0,2013-10-27 14:35:00
10:55 AM,49.5,42.8,78,30.08,10.0,Calm,Calm,-,N/A,,Clear,0,2013-10-27 14:55:00
11:15 AM,50.9,42.8,74,30.09,10.0,Calm,Calm,-,N/A,,Clear,0,2013-10-27 15:15:00
11:35 AM,51.8,42.8,71,30.09,10.0,Calm,Calm,-,N/A,,Clear,0,2013-10-27 15:35:00
11:55 AM,54.3,43.0,66,30.08,10.0,Calm,Calm,-,N/A,,Clear,0,2013-10-27 15:55:00
12:15 PM,56.1,41.5,58,30.08,10.0,Calm,Calm,-,N/A,,Clear,0,2013-10-27 16:15:00
12:35 PM,58.5,42.1,55,30.07,10.0,Calm,Calm,-,N/A,,Clear,0,2013-10-27 16:35:00
12:55 PM,59.4,41.5,52,30.07,10.0,Calm,Calm,-,N/A,,Clear,0,2013-10-27 16:55:00
1:15 PM,60.6,41.7,50,30.05,10.0,SW,4.6,-,N/A,,Clear,220,2013-10-27 17:15:00
1:35 PM,61.3,41.9,49,30.04,10.0,WSW,5.8,-,N/A,,Scattered Clouds,240,2013-10-27 17:35:00
1:55 PM,61.2,42.1,50,30.03,10.0,SW,4.6,-,N/A,,Scattered Clouds,230,2013-10-27 17:55:00
2:15 PM,61.5,41.9,49,30.03,10.0,WNW,4.6,-,N/A,,Scattered Clouds,290,2013-10-27 18:15:00
2:35 PM,61.5,41.4,48,30.03,10.0,Calm,Calm,-,N/A,,Scattered Clouds,0,2013-10-27 18:35:00
2:55 PM,63.1,41.7,46,30.03,10.0,West,4.6,-,N/A,,Scattered Clouds,270,2013-10-27 18:55:00
3:15 PM,63.7,41.4,44,30.03,10.0,NW,6.9,-,N/A,,Clear,320,2013-10-27 19:15:00
3:35 PM,64.0,41.4,43,30.02,10.0,NW,8.1,-,N/A,,Clear,310,2013-10-27 19:35:00
3:55 PM,63.5,41.2,44,30.02,10.0,WSW,5.8,-,N/A,,Clear,240,2013-10-27 19:55:00
4:15 PM,63.5,41.0,44,30.03,10.0,WNW,6.9,-,N/A,,Clear,300,2013-10-27 20:15:00
4:35 PM,62.6,41.2,45,30.03,10.0,WSW,4.6,-,N/A,,Clear,250,2013-10-27 20:35:00
4:55 PM,62.4,41.7,47,30.03,10.0,SW,3.5,-,N/A,,Clear,220,2013-10-27 20:55:00
5:15 PM,61.5,42.1,49,30.04,10.0,SSW,5.8,-,N/A,,Clear,200,2013-10-27 21:15:00
5:35 PM,60.3,42.8,53,30.04,10.0,Calm,Calm,-,N/A,,Clear,0,2013-10-27 21:35:00
5:55 PM,58.5,42.1,55,30.04,10.0,Calm,Calm,-,N/A,,Clear,0,2013-10-27 21:55:00
6:15 PM,51.8,42.3,70,30.05,10.0,Calm,Calm,-,N/A,,Clear,0,2013-10-27 22:15:00
6:35 PM,48.9,42.1,77,30.05,10.0,Calm,Calm,-,N/A,,Clear,0,2013-10-27 22:35:00
6:55 PM,46.2,41.4,83,30.06,10.0,Calm,Calm,-,N/A,,Clear,0,2013-10-27 22:55:00
7:15 PM,45.3,41.5,87,30.07,10.0,Calm,Calm,-,N/A,,Clear,0,2013-10-27 23:15:00
7:35 PM,45.5,41.7,87,30.08,10.0,Calm,Calm,-,N/A,,Clear,0,2013-10-27 23:35:00
7:55 PM,44.1,41.4,90,30.08,10.0,Calm,Calm,-,N/A,,Clear,0,2013-10-27 23:55:00
8:15 PM,44.1,41.4,90,30.09,10.0,Calm,Calm,-,N/A,,Clear,0,2013-10-28 00:15:00
8:35 PM,42.8,40.8,93,30.10,10.0,Calm,Calm,-,N/A,,Clear,0,2013-10-28 00:35:00
8:55 PM,41.9,40.8,96,30.11,10.0,Calm,Calm,-,N/A,,Clear,0,2013-10-28 00:55:00
9:15 PM,41.2,39.7,95,30.11,10.0,Calm,Calm,-,N/A,,Clear,0,2013-10-28 01:15:00
9:35 PM,39.6,38.1,95,30.12,10.0,Calm,Calm,-,N/A,,Clear,0,2013-10-28 01:35:00
9:55 PM,39.9,39.4,98,30.13,10.0,Calm,Calm,-,N/A,,Clear,0,2013-10-28 01:55:00
10:15 PM,39.2,39.0,99,30.13,10.0,Calm,Calm,-,N/A,,Clear,0,2013-10-28 02:15:00
10:35 PM,39.2,39.0,99,30.14,10.0,Calm,Calm,-,N/A,,Clear,0,2013-10-28 02:35:00
10:55 PM,39.0,38.7,99,30.13,10.0,Calm,Calm,-,N/A,,Clear,0,2013-10-28 02:55:00
11:15 PM,37.4,37.4,100,30.13,10.0,Calm,Calm,-,N/A,,Clear,0,2013-10-28 03:15:00
11:35 PM,36.3,36.3,100,30.14,10.0,Calm,Calm,-,N/A,,Clear,0,2013-10-28 03:35:00
11:55 PM,36.3,36.3,100,30.14,10.0,Calm,Calm,-,N/A,,Clear,0,2013-10-28 03:55:00